Weather History for Lancaster, SC

Change the Weather History Date:

Saturday, January 26, 2013

  Actual Average (KUZA) Record (KUZA)
Temperature  
Mean Temperature 36 °F -  
Max Temperature 48 °F 52 °F 75 °F (1949)
Min Temperature 24 °F 31 °F 15 °F (1985)
Degree Days  
Heating Degree Days 29    
Moisture  
Dew Point 30 °F    
Average Humidity 90    
Maximum Humidity 100    
Minimum Humidity 53    
Precipitation  
Precipitation 0.00 in - - ()
Sea Level Pressure  
Sea Level Pressure 30.21 in    
Wind  
Wind Speed 1 mph (NE)    
Max Wind Speed 7 mph    
Max Gust Speed -    
Visibility 9 miles    
Events Rain    
Averages and records for this station are not official NWS values.
T = Trace of Precipitation, MM = Missing Value Source: NWS Daily Summary

Daily Weather History Graph

Daily Weather History Graph

Search for Another Location

Airport:

Trip Planner

Search our weather history database for the weather conditions in past years. The results will help you decide how hot, cold, wet, or windy it might be!

Date:

Astronomy

Jan. 26, 2013 Rise Set
Actual Time 7:25 AM EST 5:46 PM EST
Civil Twilight 6:58 AM EST 6:13 PM EST
Nautical Twilight 6:28 AM EST 6:44 PM EST
Astronomical Twilight 5:58 AM EST 7:14 PM EST
Moon 5:38 PM EST (1/26) 6:43 AM EST (1/26)
Length of Visible Light 11h 15m
Length of Day
10h 21m
Full, 100% of the Moon is Illuminated
Jan 26
Full
Jan 26
Full
Feb 3
Last Quarter
Feb 10
New
Feb 17
First Quarter

Hourly Weather History & Observations

Time (EST) Temp. Windchill Dew Point Humidity Pressure Visibility Wind Dir Wind Speed Gust Speed Precip Events Conditions
12:15 AM 28.4 °F - 28.4 °F 100% 30.13 in 10.0 mi Calm Calm - N/A Rain Light Freezing Rain
12:35 AM 28.4 °F - 28.4 °F 100% 30.13 in 10.0 mi Calm Calm - N/A Rain Light Freezing Rain
12:55 AM 28.4 °F - 28.4 °F 100% 30.13 in 10.0 mi Calm Calm - N/A Rain Light Freezing Rain
1:15 AM 28.4 °F - 28.4 °F 100% 30.13 in 9.0 mi Calm Calm - N/A Rain Light Freezing Rain
1:35 AM 26.6 °F - 26.6 °F 100% 30.13 in 8.0 mi Calm Calm - N/A Rain Light Freezing Rain
1:55 AM 26.6 °F - 26.6 °F 100% 30.12 in 9.0 mi Calm Calm - N/A Rain Light Freezing Rain
2:15 AM 26.6 °F - 26.6 °F 100% 30.12 in 10.0 mi Calm Calm - N/A Rain Light Freezing Rain
2:35 AM 26.6 °F - 26.6 °F 100% 30.12 in 10.0 mi Calm Calm - N/A Rain Light Freezing Rain
2:55 AM 26.6 °F - 26.6 °F 100% 30.12 in 10.0 mi Calm Calm - N/A Rain Light Freezing Rain
3:15 AM 26.6 °F - 26.6 °F 100% 30.12 in 10.0 mi Calm Calm - N/A Rain Light Freezing Rain
3:35 AM 26.6 °F - 26.6 °F 100% 30.12 in 9.0 mi Calm Calm - N/A Rain Light Freezing Rain
3:55 AM 26.6 °F - 26.6 °F 100% 30.12 in 10.0 mi Calm Calm - N/A Rain Light Freezing Rain
4:15 AM 24.8 °F - 24.8 °F 100% 30.12 in 10.0 mi Calm Calm - N/A Rain Light Freezing Rain
4:35 AM 24.8 °F - 24.8 °F 100% 30.12 in 10.0 mi Calm Calm - N/A Rain Light Freezing Rain
5:15 AM 26.6 °F - 26.6 °F 100% 30.13 in 10.0 mi Calm Calm - N/A Rain Light Freezing Rain
5:35 AM 26.6 °F - 26.6 °F 100% 30.12 in 10.0 mi Calm Calm - N/A Rain Light Freezing Rain
6:15 AM 26.6 °F - 26.6 °F 100% 30.12 in 10.0 mi Calm Calm - N/A Rain Light Freezing Rain
6:35 AM 26.6 °F - 26.6 °F 100% 30.13 in 10.0 mi Calm Calm - N/A Rain Light Freezing Rain
6:55 AM 26.6 °F - 26.6 °F 100% 30.14 in 10.0 mi Calm Calm - N/A Rain Light Freezing Rain
7:15 AM 26.6 °F - 26.6 °F 100% 30.15 in 10.0 mi Calm Calm - N/A Rain Light Freezing Rain
7:35 AM 26.6 °F - 26.6 °F 100% 30.17 in 10.0 mi Calm Calm - N/A Rain Light Freezing Rain
7:55 AM 26.6 °F - 26.6 °F 100% 30.17 in 10.0 mi Calm Calm - N/A Rain Light Freezing Rain
8:15 AM 28.4 °F - 28.4 °F 100% 30.18 in 9.0 mi Calm Calm - N/A Rain Light Freezing Rain
8:35 AM 28.4 °F - 28.4 °F 100% 30.19 in 9.0 mi Calm Calm - N/A Rain Light Freezing Rain
8:55 AM 28.4 °F - 28.4 °F 100% 30.19 in 6.0 mi Calm Calm - N/A Rain Light Freezing Rain
9:15 AM 30.2 °F - 30.2 °F 100% 30.20 in 8.0 mi Calm Calm - N/A Rain Light Freezing Rain
9:35 AM 32.0 °F - 30.2 °F 93% 30.21 in 9.0 mi Calm Calm - N/A Rain Light Rain
9:55 AM 32.0 °F 28.7 °F 32.0 °F 100% 30.22 in 8.0 mi NE 3.5 mph - N/A Rain Light Rain
10:15 AM 32.0 °F - 32.0 °F 100% 30.24 in 9.0 mi Calm Calm - N/A Rain Light Rain
10:35 AM 32.0 °F - 32.0 °F 100% 30.24 in 9.0 mi Calm Calm - N/A Rain Light Rain
10:55 AM 32.0 °F - 32.0 °F 100% 30.25 in 8.0 mi Calm Calm - N/A Rain Light Rain
11:15 AM 33.8 °F - 33.8 °F 100% 30.26 in 7.0 mi Calm Calm - N/A   Clear
11:35 AM 35.6 °F 32.8 °F 33.8 °F 93% 30.26 in 10.0 mi NNE 3.5 mph - N/A   Clear
11:55 AM 39.2 °F 35.0 °F 35.6 °F 87% 30.25 in 10.0 mi NNE 5.8 mph - N/A   Clear
12:15 PM 39.2 °F 34.2 °F 35.6 °F 87% 30.24 in 10.0 mi NNE 6.9 mph - N/A   Clear
12:35 PM 41.0 °F 38.0 °F 35.6 °F 81% 30.24 in 10.0 mi NE 4.6 mph - N/A   Clear
12:55 PM 42.8 °F 39.3 °F 35.6 °F 76% 30.24 in 10.0 mi NE 5.8 mph - N/A   Clear
1:15 PM 41.0 °F 38.0 °F 35.6 °F 81% 30.23 in 10.0 mi NNE 4.6 mph - N/A   Clear
1:35 PM 41.0 °F 36.4 °F 33.8 °F 76% 30.22 in 10.0 mi NE 6.9 mph - N/A   Clear
1:55 PM 44.6 °F 43.1 °F 32.0 °F 61% 30.22 in 10.0 mi East 3.5 mph - N/A   Clear
2:15 PM 44.6 °F - 32.0 °F 61% 30.22 in 10.0 mi Calm Calm - N/A   Clear
2:35 PM 44.6 °F - 32.0 °F 61% 30.22 in 10.0 mi Calm Calm - N/A   Clear
2:55 PM 46.4 °F 44.3 °F 32.0 °F 57% 30.21 in 10.0 mi NNE 4.6 mph - N/A   Clear
3:15 PM 46.4 °F 45.2 °F 32.0 °F 57% 30.22 in 10.0 mi NE 3.5 mph - N/A   Clear
3:35 PM 46.4 °F - 30.2 °F 53% 30.22 in 10.0 mi Calm Calm - N/A   Clear
3:55 PM 46.4 °F - 30.2 °F 53% 30.22 in 10.0 mi Calm Calm - N/A   Clear
4:15 PM 48.2 °F - 32.0 °F 54% 30.23 in 10.0 mi NNE 3.5 mph - N/A   Clear
4:35 PM 46.4 °F - 32.0 °F 57% 30.23 in 10.0 mi Calm Calm - N/A   Clear
4:55 PM 44.6 °F - 32.0 °F 61% 30.23 in 10.0 mi Calm Calm - N/A   Clear
5:15 PM 42.8 °F - 32.0 °F 66% 30.24 in 10.0 mi Calm Calm - N/A   Clear
5:35 PM 41.0 °F - 32.0 °F 70% 30.24 in 10.0 mi Calm Calm - N/A   Clear
6:15 PM 39.2 °F - 32.0 °F 75% 30.25 in 10.0 mi Calm Calm - N/A   Clear
6:35 PM 37.4 °F - 32.0 °F 81% 30.27 in 10.0 mi Calm Calm - N/A   Clear
7:15 PM 32.0 °F - 32.0 °F 100% 30.27 in 10.0 mi Calm Calm - N/A   Clear
7:35 PM 32.0 °F - 32.0 °F 100% 30.28 in 10.0 mi Calm Calm - N/A   Clear
7:55 PM 32.0 °F - 32.0 °F 100% 30.28 in 10.0 mi Calm Calm - N/A   Clear
8:15 PM 32.0 °F - 32.0 °F 100% 30.29 in 10.0 mi Calm Calm - N/A   Clear
8:35 PM 30.2 °F - 30.2 °F 100% 30.30 in 10.0 mi Calm Calm - N/A   Clear
8:55 PM 32.0 °F - 32.0 °F 100% 30.30 in 10.0 mi Calm Calm - N/A   Clear
9:15 PM 30.2 °F - 30.2 °F 100% 30.30 in 10.0 mi Calm Calm - N/A Rain Light Freezing Rain
9:35 PM 30.2 °F - 30.2 °F 100% 30.30 in 10.0 mi Calm Calm - N/A Rain Light Freezing Rain
9:55 PM 28.4 °F 24.6 °F 28.4 °F 100% 30.31 in 8.0 mi NE 3.5 mph - N/A Rain Light Freezing Rain
10:15 PM 28.4 °F - 28.4 °F 100% 30.32 in 9.0 mi Calm Calm - N/A   Clear
10:35 PM 28.4 °F - 28.4 °F 100% 30.33 in 8.0 mi Calm Calm - N/A   Clear
10:55 PM 30.2 °F - 30.2 °F 100% 30.34 in 8.0 mi Calm Calm - N/A   Clear
11:15 PM 28.4 °F - 28.4 °F 100% 30.34 in 6.0 mi Calm Calm - N/A   Clear
11:35 PM 28.4 °F - 28.4 °F 100% 30.35 in 5.0 mi Calm Calm - N/A   Clear
11:55 PM 28.4 °F - 28.4 °F 100% 30.35 in 5.0 mi Calm Calm - N/A   Clear